TimeCDT,TemperatureF,Dew PointF,Humidity,Sea Level PressureIn,VisibilityMPH,Wind Direction,Wind SpeedMPH,Gust SpeedMPH,PrecipitationIn,Events,Conditions,WindDirDegrees,DateUTC
12:15 AM,33.8,26.6,75,30.12,10.0,SE,12.7,-,N/A,,Clear,140,2013-03-14 05:15:00
12:35 AM,33.8,26.6,75,30.12,10.0,SE,9.2,-,N/A,,Partly Cloudy,140,2013-03-14 05:35:00
12:55 AM,33.8,26.6,75,30.11,10.0,SSE,10.4,-,N/A,,Mostly Cloudy,150,2013-03-14 05:55:00
1:15 AM,33.8,26.6,75,30.10,10.0,SE,9.2,-,N/A,,Mostly Cloudy,140,2013-03-14 06:15:00
1:55 AM,35.6,28.4,75,30.07,10.0,SSE,9.2,-,N/A,,Partly Cloudy,150,2013-03-14 06:55:00
2:15 AM,35.6,28.4,75,30.07,10.0,SSE,6.9,-,N/A,,Clear,160,2013-03-14 07:15:00
2:35 AM,37.4,26.6,65,30.07,10.0,SE,5.8,-,N/A,,Partly Cloudy,140,2013-03-14 07:35:00
2:55 AM,35.6,26.6,70,30.07,10.0,SSE,6.9,-,N/A,,Partly Cloudy,150,2013-03-14 07:55:00
3:15 AM,35.6,26.6,70,30.05,10.0,SE,10.4,-,N/A,,Partly Cloudy,140,2013-03-14 08:15:00
3:35 AM,35.6,26.6,70,30.04,10.0,South,9.2,-,N/A,,Partly Cloudy,170,2013-03-14 08:35:00
3:55 AM,35.6,26.6,70,30.03,10.0,SE,10.4,-,N/A,,Scattered Clouds,130,2013-03-14 08:55:00
4:15 AM,35.6,26.6,70,30.02,10.0,SSE,9.2,-,N/A,,Scattered Clouds,160,2013-03-14 09:15:00
4:35 AM,33.8,26.6,75,30.01,10.0,ESE,4.6,-,N/A,,Clear,120,2013-03-14 09:35:00
4:55 AM,33.8,26.6,75,30.01,10.0,SE,6.9,-,N/A,,Scattered Clouds,130,2013-03-14 09:55:00
5:15 AM,33.8,28.4,81,30.00,10.0,SE,6.9,-,N/A,,Partly Cloudy,140,2013-03-14 10:15:00
5:35 AM,33.8,26.6,75,30.00,10.0,ESE,4.6,-,N/A,,Clear,120,2013-03-14 10:35:00
5:55 AM,32.0,26.6,80,30.01,10.0,Calm,Calm,-,N/A,,Clear,0,2013-03-14 10:55:00
6:15 AM,32.0,26.6,80,30.00,10.0,Calm,Calm,-,N/A,,Clear,0,2013-03-14 11:15:00
6:35 AM,32.0,26.6,80,30.01,10.0,Calm,Calm,-,N/A,,Clear,0,2013-03-14 11:35:00
6:55 AM,32.0,26.6,80,30.01,10.0,Calm,Calm,-,N/A,,Clear,0,2013-03-14 11:55:00
7:15 AM,28.4,26.6,93,30.02,10.0,NNW,3.5,-,N/A,,Clear,340,2013-03-14 12:15:00
7:35 AM,28.4,24.8,86,30.03,10.0,NNE,3.5,-,N/A,,Clear,20,2013-03-14 12:35:00
7:55 AM,32.0,28.4,87,30.03,10.0,Calm,Calm,-,N/A,,Clear,0,2013-03-14 12:55:00
8:15 AM,30.2,26.6,86,30.03,10.0,Calm,Calm,-,N/A,,Clear,0,2013-03-14 13:15:00
8:35 AM,37.4,35.6,93,30.05,10.0,West,9.2,-,N/A,,Clear,280,2013-03-14 13:35:00
8:55 AM,39.2,32.0,75,30.05,10.0,WNW,12.7,-,N/A,,Clear,290,2013-03-14 13:55:00
9:15 AM,41.0,32.0,70,30.06,10.0,WNW,17.3,-,N/A,,Clear,290,2013-03-14 14:15:00
9:35 AM,42.8,32.0,66,30.07,10.0,WNW,16.1,-,N/A,,Clear,300,2013-03-14 14:35:00
9:55 AM,42.8,33.8,70,30.08,10.0,NW,18.4,21.9,N/A,,Clear,310,2013-03-14 14:55:00
10:15 AM,44.6,33.8,66,30.08,10.0,NW,19.6,-,N/A,,Clear,310,2013-03-14 15:15:00
10:35 AM,44.6,33.8,66,30.08,10.0,NW,16.1,-,N/A,,Clear,310,2013-03-14 15:35:00
10:55 AM,46.4,33.8,62,30.09,10.0,NW,13.8,-,N/A,,Clear,310,2013-03-14 15:55:00
11:15 AM,46.4,33.8,62,30.10,10.0,WNW,13.8,-,N/A,,Clear,300,2013-03-14 16:15:00
11:35 AM,48.2,33.8,58,30.10,10.0,WNW,15.0,-,N/A,,Clear,300,2013-03-14 16:35:00
11:55 AM,48.2,35.6,62,30.11,10.0,WNW,13.8,-,N/A,,Clear,290,2013-03-14 16:55:00
12:15 PM,48.2,35.6,62,30.11,10.0,WNW,11.5,-,N/A,,Clear,300,2013-03-14 17:15:00
12:35 PM,51.8,37.4,58,30.12,10.0,NW,13.8,-,N/A,,Clear,310,2013-03-14 17:35:00
12:55 PM,51.8,37.4,58,30.11,10.0,WNW,12.7,-,N/A,,Clear,300,2013-03-14 17:55:00
1:15 PM,51.8,37.4,58,30.11,10.0,WNW,12.7,-,N/A,,Clear,300,2013-03-14 18:15:00
1:35 PM,53.6,39.2,58,30.11,10.0,WNW,11.5,-,N/A,,Clear,300,2013-03-14 18:35:00
1:55 PM,53.6,39.2,58,30.11,10.0,WNW,12.7,-,N/A,,Clear,300,2013-03-14 18:55:00
2:15 PM,53.6,37.4,54,30.10,10.0,WNW,11.5,-,N/A,,Clear,300,2013-03-14 19:15:00
2:35 PM,55.4,37.4,51,30.10,10.0,WNW,10.4,-,N/A,,Clear,300,2013-03-14 19:35:00
2:55 PM,55.4,39.2,54,30.10,10.0,West,11.5,-,N/A,,Clear,270,2013-03-14 19:55:00
3:15 PM,55.4,39.2,54,30.09,10.0,WNW,12.7,-,N/A,,Clear,290,2013-03-14 20:15:00
3:35 PM,57.2,41.0,55,30.09,10.0,WNW,9.2,-,N/A,,Clear,290,2013-03-14 20:35:00
3:55 PM,57.2,39.2,51,30.09,10.0,WNW,6.9,-,N/A,,Clear,300,2013-03-14 20:55:00
4:15 PM,57.2,41.0,55,30.10,10.0,NW,11.5,18.4,N/A,,Clear,320,2013-03-14 21:15:00
4:35 PM,57.2,42.8,59,30.10,10.0,NW,10.4,16.1,N/A,,Clear,310,2013-03-14 21:35:00
4:55 PM,59.0,42.8,55,30.09,10.0,NNW,10.4,-,N/A,,Clear,330,2013-03-14 21:55:00
5:15 PM,57.2,42.8,59,30.09,10.0,NW,11.5,-,N/A,,Clear,310,2013-03-14 22:15:00
5:35 PM,57.2,42.8,59,30.08,10.0,NW,8.1,-,N/A,,Clear,310,2013-03-14 22:35:00
5:55 PM,57.2,42.8,59,30.08,10.0,NNW,6.9,-,N/A,,Clear,330,2013-03-14 22:55:00
6:15 PM,57.2,42.8,59,30.07,10.0,NNW,4.6,-,N/A,,Clear,340,2013-03-14 23:15:00
6:35 PM,57.2,42.8,59,30.07,10.0,North,3.5,-,N/A,,Clear,350,2013-03-14 23:35:00
6:55 PM,55.4,42.8,63,30.07,10.0,North,3.5,-,N/A,,Clear,350,2013-03-14 23:55:00
7:15 PM,53.6,42.8,67,30.07,10.0,North,3.5,-,N/A,,Clear,350,2013-03-15 00:15:00
7:35 PM,51.8,39.2,62,30.06,10.0,Calm,Calm,-,N/A,,Clear,0,2013-03-15 00:35:00
7:55 PM,50.0,39.2,66,30.06,10.0,Calm,Calm,-,N/A,,Clear,0,2013-03-15 00:55:00
8:15 PM,48.2,41.0,76,30.06,10.0,Calm,Calm,-,N/A,,Clear,0,2013-03-15 01:15:00
8:35 PM,44.6,39.2,81,30.06,10.0,Calm,Calm,-,N/A,,Clear,0,2013-03-15 01:35:00
8:55 PM,44.6,39.2,81,30.05,10.0,East,3.5,-,N/A,,Clear,80,2013-03-15 01:55:00
9:15 PM,44.6,39.2,81,30.04,10.0,ESE,4.6,-,N/A,,Clear,110,2013-03-15 02:15:00
9:35 PM,44.6,39.2,81,30.03,10.0,East,5.8,-,N/A,,Clear,90,2013-03-15 02:35:00
9:55 PM,44.6,39.2,81,30.03,10.0,East,5.8,-,N/A,,Clear,100,2013-03-15 02:55:00
10:15 PM,42.8,39.2,87,30.02,10.0,East,4.6,-,N/A,,Clear,90,2013-03-15 03:15:00
10:35 PM,42.8,39.2,87,30.01,10.0,ESE,5.8,-,N/A,,Clear,110,2013-03-15 03:35:00
10:55 PM,41.0,37.4,87,30.01,10.0,East,3.5,-,N/A,,Clear,90,2013-03-15 03:55:00
11:15 PM,42.8,39.2,87,30.00,10.0,East,5.8,-,N/A,,Clear,100,2013-03-15 04:15:00
11:35 PM,42.8,39.2,87,30.00,10.0,ESE,4.6,-,N/A,,Clear,110,2013-03-15 04:35:00
11:55 PM,39.2,39.2,100,29.99,10.0,ESE,4.6,-,N/A,,Clear,110,2013-03-15 04:55:00